�������l�o���
Date,Time,MP-1(��Sv/h),MP-2(��Sv/h),MP-3(��Sv/h),MP-4(��Sv/h),MP-5(��Sv/h),MP-6(��Sv/h),MP-7(��Sv/h),MP-8(��Sv/h),����,����(m/s),���J
2021/08/10,00:00,0.589,0.870,0.563,1.056,0.743,0.364,0.625,0.585,��,10.2,��
2021/08/10,00:10,0.589,0.869,0.563,1.056,0.744,0.363,0.625,0.585,��,10.9,��
2021/08/10,00:20,0.590,0.868,0.563,1.058,0.744,0.364,0.626,0.586,��,12.8,��
2021/08/10,00:30,0.589,0.869,0.562,1.058,0.743,0.361,0.626,0.585,��,12.2,��
2021/08/10,00:40,0.590,0.867,0.562,1.057,0.744,0.362,0.626,0.585,��,10.7,��
2021/08/10,00:50,0.590,0.871,0.563,1.056,0.743,0.362,0.623,0.587,��,9.3,��
2021/08/10,01:00,0.591,0.870,0.563,1.058,0.744,0.362,0.626,0.585,��,9.2,��
2021/08/10,01:10,0.592,0.869,0.562,1.057,0.745,0.361,0.625,0.587,��,8.5,��
2021/08/10,01:20,0.591,0.870,0.563,1.056,0.745,0.364,0.626,0.585,��,8.3,��
2021/08/10,01:30,0.592,0.871,0.564,1.058,0.744,0.364,0.626,0.585,��,8.5,��
2021/08/10,01:40,0.591,0.871,0.564,1.058,0.745,0.365,0.626,0.587,��,8.7,��
2021/08/10,01:50,0.592,0.873,0.563,1.060,0.745,0.363,0.625,0.587,��,7.8,��
2021/08/10,02:00,0.590,0.870,0.562,1.060,0.743,0.364,0.626,0.587,��,9.5,��
2021/08/10,02:10,0.592,0.872,0.561,1.061,0.746,0.362,0.627,0.585,��,9.5,��
2021/08/10,02:20,0.592,0.872,0.564,1.059,0.747,0.362,0.626,0.585,��,10.0,��
2021/08/10,02:30,0.591,0.869,0.563,1.057,0.746,0.362,0.626,0.586,��,9.0,��
2021/08/10,02:40,0.591,0.872,0.564,1.058,0.745,0.364,0.626,0.586,��,8.4,��
2021/08/10,02:50,0.592,0.873,0.562,1.057,0.746,0.364,0.625,0.584,��,7.7,��
2021/08/10,03:00,0.590,0.871,0.562,1.060,0.748,0.363,0.626,0.586,��,6.7,��
2021/08/10,03:10,0.593,0.872,0.564,1.060,0.747,0.365,0.627,0.587,��,4.1,��
2021/08/10,03:20,0.591,0.873,0.563,1.060,0.748,0.364,0.626,0.586,��쐼,3.7,��
2021/08/10,03:30,0.593,0.869,0.564,1.058,0.747,0.363,0.626,0.585,��쐼,3.5,��
2021/08/10,03:40,0.592,0.874,0.565,1.059,0.746,0.364,0.626,0.586,��쐼,4.7,��
2021/08/10,03:50,0.591,0.872,0.565,1.060,0.746,0.364,0.625,0.586,��쐼,5.0,��
2021/08/10,04:00,0.591,0.872,0.566,1.059,0.748,0.364,0.626,0.587,��쐼,6.5,��
2021/08/10,04:10,0.593,0.875,0.564,1.059,0.747,0.364,0.625,0.587,��쐼,9.1,��
2021/08/10,04:20,0.592,0.875,0.564,1.059,0.750,0.364,0.626,0.586,��쐼,9.5,��
2021/08/10,04:30,0.594,0.876,0.565,1.061,0.747,0.364,0.626,0.585,��쐼,8.8,��
2021/08/10,04:40,0.593,0.873,0.563,1.061,0.747,0.365,0.627,0.588,��쐼,9.8,��
2021/08/10,04:50,0.592,0.873,0.564,1.061,0.748,0.364,0.626,0.586,��쐼,8.6,��
2021/08/10,05:00,0.593,0.874,0.565,1.061,0.748,0.364,0.629,0.585,��쐼,8.3,��
2021/08/10,05:10,0.595,0.875,0.564,1.061,0.750,0.364,0.627,0.586,��쐼,8.1,��
2021/08/10,05:20,0.593,0.876,0.563,1.060,0.750,0.364,0.626,0.587,��,7.8,��
2021/08/10,05:30,0.593,0.876,0.563,1.061,0.747,0.364,0.627,0.587,��,7.8,��
2021/08/10,05:40,0.594,0.874,0.563,1.062,0.748,0.365,0.628,0.587,��,6.8,��
2021/08/10,05:50,0.594,0.872,0.565,1.061,0.749,0.364,0.628,0.587,��,6.6,��
2021/08/10,06:00,0.594,0.874,0.564,1.061,0.749,0.364,0.628,0.588,��,7.3,��
2021/08/10,06:10,0.593,0.874,0.566,1.062,0.747,0.364,0.628,0.586,��쐼,7.6,��
2021/08/10,06:20,0.593,0.876,0.564,1.059,0.750,0.365,0.628,0.586,��쐼,8.0,�L
2021/08/10,06:30,0.594,0.877,0.565,1.061,0.749,0.365,0.626,0.588,��쐼,8.3,�L
2021/08/10,06:40,0.595,0.874,0.564,1.061,0.751,0.365,0.628,0.589,��,9.1,�L
2021/08/10,06:50,0.595,0.876,0.563,1.060,0.750,0.365,0.627,0.588,��,9.2,�L
2021/08/10,07:00,0.593,0.876,0.565,1.062,0.750,0.364,0.627,0.586,��,9.5,��
2021/08/10,07:10,0.594,0.876,0.565,1.062,0.752,0.365,0.628,0.587,��,8.7,��
2021/08/10,07:20,0.593,0.875,0.565,1.062,0.751,0.365,0.627,0.587,��,9.2,��
2021/08/10,07:30,0.595,0.876,0.566,1.063,0.750,0.365,0.628,0.586,��,10.2,��
2021/08/10,07:40,0.597,0.878,0.567,1.061,0.751,0.364,0.628,0.588,��,10.9,��
2021/08/10,07:50,0.596,0.878,0.567,1.063,0.751,0.365,0.628,0.588,��,12.7,��
2021/08/10,08:00,0.598,0.877,0.565,1.064,0.751,0.366,0.629,0.588,��,11.6,��
2021/08/10,08:10,0.595,0.880,0.564,1.065,0.751,0.364,0.626,0.587,��,11.7,��
2021/08/10,08:20,0.597,0.878,0.568,1.064,0.751,0.365,0.628,0.587,��쓌,11.6,��
2021/08/10,08:30,0.596,0.880,0.565,1.062,0.751,0.367,0.628,0.587,��쓌,10.2,��
2021/08/10,08:40,0.595,0.877,0.566,1.064,0.752,0.364,0.627,0.586,��쓌,9.8,��
2021/08/10,08:50,0.596,0.878,0.566,1.064,0.754,0.365,0.629,0.587,��,9.9,��
2021/08/10,09:00,0.597,0.880,0.568,1.064,0.753,0.368,0.628,0.588,��,9.7,��
2021/08/10,09:10,0.597,0.879,0.568,1.065,0.754,0.367,0.629,0.586,��,8.5,��
2021/08/10,09:20,0.597,0.879,0.567,1.064,0.754,0.367,0.629,0.585,��,8.8,��
2021/08/10,09:30,0.598,0.882,0.566,1.063,0.755,0.366,0.630,0.586,��,8.0,��
2021/08/10,09:40,0.598,0.880,0.568,1.065,0.752,0.366,0.630,0.587,��쐼,6.1,��
2021/08/10,09:50,0.598,0.881,0.567,1.066,0.752,0.366,0.628,0.585,��쐼,5.1,��
2021/08/10,10:00,0.595,0.881,0.566,1.065,0.753,0.366,0.629,0.585,�쐼,4.8,��
2021/08/10,10:10,0.599,0.879,0.566,1.066,0.754,0.366,0.628,0.585,�쐼,6.0,��
2021/08/10,10:20,0.597,0.882,0.566,1.067,0.753,0.367,0.629,0.586,�쐼,7.0,��
2021/08/10,10:30,0.597,0.881,0.568,1.064,0.753,0.367,0.631,0.586,���쐼,6.5,��
2021/08/10,10:40,0.598,0.879,0.570,1.067,0.753,0.366,0.630,0.586,���쐼,6.4,��
2021/08/10,10:50,0.598,0.881,0.570,1.068,0.754,0.366,0.628,0.585,��,6.3,��
2021/08/10,11:00,0.598,0.882,0.569,1.069,0.755,0.365,0.630,0.588,��,5.6,��
2021/08/10,11:10,0.599,0.881,0.570,1.067,0.757,0.366,0.630,0.586,��,5.2,��
2021/08/10,11:20,0.599,0.882,0.567,1.068,0.755,0.365,0.627,0.588,���쐼,7.6,��
2021/08/10,11:30,0.598,0.882,0.571,1.069,0.755,0.365,0.630,0.588,���쐼,9.6,��
2021/08/10,11:40,0.599,0.883,0.569,1.068,0.756,0.365,0.630,0.590,���쐼,11.1,��
2021/08/10,11:50,0.600,0.885,0.570,1.068,0.757,0.366,0.629,0.589,���쐼,9.8,��
2021/08/10,12:00,0.599,0.886,0.571,1.068,0.755,0.366,0.630,0.589,��,6.4,��
2021/08/10,12:10,0.601,0.885,0.571,1.070,0.759,0.366,0.631,0.588,���쐼,8.5,��
2021/08/10,12:20,0.600,0.885,0.569,1.071,0.758,0.367,0.630,0.590,���쐼,9.1,��
2021/08/10,12:30,0.601,0.887,0.569,1.071,0.758,0.366,0.630,0.588,���쐼,9.0,��
2021/08/10,12:40,0.602,0.889,0.571,1.070,0.760,0.367,0.633,0.589,���쐼,9.0,��
2021/08/10,12:50,0.601,0.888,0.570,1.071,0.760,0.366,0.630,0.589,��,10.0,��
2021/08/10,13:00,0.601,0.890,0.571,1.071,0.762,0.367,0.630,0.590,���쐼,6.4,��
2021/08/10,13:10,0.601,0.893,0.572,1.070,0.761,0.367,0.631,0.589,���쐼,7.9,��
2021/08/10,13:20,0.601,0.892,0.570,1.074,0.762,0.368,0.630,0.588,���k��,6.6,��
2021/08/10,13:30,0.600,0.891,0.570,1.078,0.763,0.368,0.632,0.591,��,7.1,��
2021/08/10,13:40,0.600,0.889,0.570,1.074,0.761,0.368,0.633,0.589,��,11.1,��
2021/08/10,13:50,0.601,0.889,0.572,1.076,0.763,0.367,0.633,0.591,���쐼,10.5,��
2021/08/10,14:00,0.604,0.889,0.572,1.077,0.763,0.365,0.634,0.591,��,10.6,��
2021/08/10,14:10,0.605,0.892,0.571,1.077,0.764,0.367,0.633,0.591,��,7.8,��
2021/08/10,14:20,0.604,0.891,0.572,1.079,0.765,0.367,0.634,0.589,��,6.9,��
2021/08/10,14:30,0.604,0.891,0.573,1.078,0.764,0.367,0.633,0.590,��,7.4,��
2021/08/10,14:40,0.603,0.891,0.571,1.076,0.765,0.366,0.632,0.591,��,8.2,��
2021/08/10,14:50,0.603,0.893,0.573,1.074,0.766,0.369,0.634,0.591,��,7.1,��
2021/08/10,15:00,0.604,0.890,0.574,1.080,0.764,0.368,0.633,0.591,��,9.3,��
2021/08/10,15:10,0.604,0.890,0.572,1.076,0.766,0.367,0.632,0.588,��,5.7,��
2021/08/10,15:20,0.605,0.892,0.571,1.078,0.766,0.367,0.631,0.590,��,8.0,��
2021/08/10,15:30,0.603,0.893,0.571,1.077,0.765,0.366,0.632,0.588,��,9.7,��
2021/08/10,15:40,0.603,0.890,0.572,1.079,0.766,0.367,0.631,0.588,��,11.7,��
2021/08/10,15:50,0.604,0.891,0.571,1.080,0.765,0.367,0.633,0.591,��,12.4,��
2021/08/10,16:00,0.603,0.892,0.571,1.080,0.764,0.366,0.631,0.591,��,11.3,��
2021/08/10,16:10,0.604,0.890,0.573,1.081,0.765,0.364,0.632,0.589,��,9.7,��
2021/08/10,16:20,0.604,0.893,0.571,1.080,0.766,0.365,0.632,0.591,��,11.0,��
2021/08/10,16:30,0.602,0.893,0.572,1.079,0.766,0.365,0.633,0.589,��,9.6,��
2021/08/10,16:40,0.602,0.892,0.572,1.078,0.765,0.366,0.633,0.588,���k��,10.7,��
2021/08/10,16:50,0.603,0.893,0.573,1.079,0.766,0.367,0.634,0.590,���k��,11.0,��
2021/08/10,17:00,0.605,0.890,0.572,1.080,0.765,0.366,0.634,0.591,���k��,10.2,��
2021/08/10,17:10,0.605,0.893,0.572,1.082,0.767,0.365,0.633,0.590,���k��,9.1,��
2021/08/10,17:20,0.605,0.894,0.571,1.081,0.765,0.365,0.632,0.590,���k��,8.1,��
2021/08/10,17:30,0.604,0.891,0.573,1.082,0.768,0.366,0.631,0.591,���k��,9.4,��
2021/08/10,17:40,0.603,0.894,0.571,1.083,0.767,0.366,0.632,0.589,��,6.5,��
2021/08/10,17:50,0.603,0.891,0.573,1.085,0.766,0.366,0.632,0.589,���k��,7.1,��
2021/08/10,18:00,0.605,0.894,0.573,1.085,0.764,0.368,0.633,0.590,���k��,6.7,��
2021/08/10,18:10,0.603,0.892,0.574,1.080,0.765,0.366,0.631,0.590,���k��,6.5,��
2021/08/10,18:20,0.603,0.890,0.574,1.081,0.767,0.366,0.632,0.590,���k��,5.3,��
2021/08/10,18:30,0.603,0.892,0.573,1.083,0.768,0.366,0.632,0.588,�k��,7.2,��
2021/08/10,18:40,0.604,0.893,0.571,1.083,0.766,0.367,0.632,0.590,���k��,6.3,��
2021/08/10,18:50,0.602,0.892,0.574,1.085,0.768,0.365,0.632,0.590,���k��,8.5,��
2021/08/10,19:00,0.603,0.892,0.574,1.084,0.767,0.365,0.631,0.590,�k��,5.4,��
2021/08/10,19:10,0.604,0.893,0.574,1.083,0.766,0.366,0.633,0.589,�k��,2.5,��
2021/08/10,19:20,0.603,0.892,0.574,1.085,0.769,0.366,0.631,0.591,���k��,3.6,��
2021/08/10,19:30,0.603,0.894,0.572,1.082,0.768,0.365,0.632,0.591,�k,2.3,��
2021/08/10,19:40,0.604,0.894,0.574,1.085,0.767,0.367,0.632,0.590,�k�k��,2.3,��
2021/08/10,19:50,0.605,0.895,0.575,1.086,0.770,0.365,0.633,0.589,���k��,2.9,��
2021/08/10,20:00,0.604,0.894,0.575,1.085,0.768,0.367,0.632,0.589,���k��,1.7,��
2021/08/10,20:10,0.604,0.894,0.573,1.084,0.768,0.368,0.633,0.590,���쐼,1.5,��
2021/08/10,20:20,0.604,0.895,0.574,1.085,0.767,0.366,0.633,0.588,�쐼,1.1,��
2021/08/10,20:30,0.604,0.891,0.575,1.083,0.768,0.366,0.632,0.590,���쐼,2.0,��
2021/08/10,20:40,0.603,0.895,0.575,1.086,0.767,0.367,0.632,0.590,��,2.0,��
2021/08/10,20:50,0.603,0.895,0.575,1.085,0.768,0.366,0.631,0.591,��,1.7,��
2021/08/10,21:00,0.603,0.895,0.574,1.085,0.766,0.366,0.631,0.590,���쐼,2.3,��
2021/08/10,21:10,0.606,0.894,0.575,1.085,0.769,0.367,0.631,0.591,���쐼,2.8,��
2021/08/10,21:20,0.604,0.895,0.574,1.086,0.767,0.365,0.632,0.592,���쐼,2.3,��
2021/08/10,21:30,0.602,0.894,0.575,1.086,0.769,0.366,0.632,0.592,��,3.9,��
2021/08/10,21:40,0.605,0.895,0.574,1.084,0.768,0.367,0.631,0.591,��,5.3,��
2021/08/10,21:50,0.603,0.894,0.575,1.085,0.771,0.366,0.633,0.590,���쐼,2.2,��
2021/08/10,22:00,0.603,0.892,0.573,1.086,0.769,0.366,0.633,0.591,��,1.1,��
2021/08/10,22:10,0.603,0.894,0.575,1.085,0.769,0.365,0.633,0.591,���쐼,2.3,��
2021/08/10,22:20,0.605,0.895,0.574,1.087,0.768,0.365,0.632,0.591,��,4.2,��
2021/08/10,22:30,0.602,0.895,0.573,1.085,0.768,0.366,0.632,0.590,��,4.7,��
2021/08/10,22:40,0.603,0.894,0.574,1.084,0.770,0.365,0.632,0.591,��,5.0,��
2021/08/10,22:50,0.603,0.894,0.573,1.089,0.769,0.367,0.632,0.590,���쐼,5.4,��
2021/08/10,23:00,0.603,0.895,0.574,1.086,0.768,0.365,0.632,0.590,���쐼,4.4,��
2021/08/10,23:10,0.604,0.894,0.574,1.086,0.767,0.365,0.632,0.591,��,3.6,��
2021/08/10,23:20,0.605,0.897,0.573,1.086,0.769,0.365,0.631,0.589,��,3.8,��
2021/08/10,23:30,0.603,0.894,0.574,1.087,0.769,0.366,0.633,0.592,��,4.1,��
2021/08/10,23:40,0.603,0.894,0.574,1.084,0.770,0.366,0.633,0.590,��,4.6,��
2021/08/10,23:50,0.603,0.894,0.576,1.086,0.767,0.367,0.633,0.590,���k��,6.7,��
